Location: Ferchesar
(52.6477°N, 12.4298°E)
Time: 21:12:02
(UTC+02:00)

Tiros 1 despin weight - Pass Details

Date: 04 March 2021
Orbit: 593 x 641 km, 48.2° (Epoch: 17 April)

Event Time Altitude Azimuth Distance (km) Brightness Sun altitude
Exits shadow 04:59:09 23° 212° (SSW) 1,350 ? -17.5°
Maximum altitude 04:59:15 23° 210° (SSW) 1,349 ? -17.5°
Drops below altitude 10° 05:02:56 10° 158° (SSE) 2,028 ? -17.0°
Sets 05:05:38 0° 144° (SE) 2,934 ? -16.6°
